C/2022 P1 ( NEOWISE )

Japanese version
Home page
Updated on March 26, 2023

---------------------------------------------------------------------

* Profile

Discovery Date August 8, 2022
Magnitude 18 mag
Discoverer Near-Earth Object Wide-field Infrared Survey Explorer

* Pictures

* Orbital Elements

Epoch 2023 Feb. 25.0 TT = JDT 2460000.5
T 2022 Nov. 28.47144 TT                                 Rudenko
q   1.5952521            (2000.0)            P               Q
n   0.01243533     Peri.  249.93367     +0.67047604     -0.71931487
a  18.4514737      Node   205.08293     -0.41143680     -0.56437475
e   0.9135434      Incl.  154.60707     -0.61739909     -0.40505218
P  79.3
>From 627 observations 2022 Aug. 8-2023 Mar. 17, mean residual 0".5.

* Finding Charts

* Magnitudes Graph

        m1 = 3.0 + 5 log d + 30 log r

---------------------------------------------------------------------

The orbital elements are published on M.P.E.C. 2023-F81.
The charts are made with StellaNavigator Ver.10 (AstroArts).
The magnitudes graphs are made with Comet for Windows.

---------------------------------------------------------------------

Copyright(C) Seiichi Yoshida (comet@aerith.net). All rights reserved.